Simultaneous Nadir Overpasses (SNOs) Predictions

Prediction of SNOs between FY3D and AQUA Satellite Orbit:

Table of predicted SNOs for the next 14.0 days since TLE Epoch: 3/12/2022
Index Date (FY3D) Time (FY3D) Lat,Lon (FY3D) SZA (FY3D ) Date (AQUA) Time (AQUA) Lat,Lon (AQUA) SZA (AQUA ) Distance(km) Time Diff (sec)
1 03/14/2022 05:23:59 -74.47, -88.14 102.87 03/14/2022 05:24:35 -74.46, -88.08 102.89 1.80 36
2 03/14/2022 06:14:11 72.72, 83.29 75.22 03/14/2022 06:13:29 72.71, 83.33 75.22 1.22 42
3 03/16/2022 20:50:55 73.79,-138.19 75.34 03/16/2022 20:51:17 73.80,-138.26 75.34 2.60 22
4 03/16/2022 21:41:15 -72.58, 31.81 105.97 03/16/2022 21:40:19 -72.57, 31.87 105.98 2.33 56
5 03/19/2022 12:18:06 -74.00, 169.54 105.49 03/19/2022 12:18:13 -73.99, 169.59 105.51 1.94 7
6 03/19/2022 13:08:17 72.18, -19.15 72.56 03/19/2022 13:07:06 72.18, -19.11 72.56 1.59 71
7 03/22/2022 02:54:50 -75.04, -52.33 105.39 03/22/2022 02:56:00 -75.04, -52.32 105.40 0.19 70
8 03/22/2022 03:45:04 73.42, 119.14 72.84 03/22/2022 03:44:56 73.43, 119.11 72.84 1.21 8
9 03/24/2022 18:21:54 74.83,-103.50 73.33 03/24/2022 18:22:48 74.83,-103.48 73.32 0.40 54



Historial Predications of SNOs between FY3D and AQUA
